Weather History for KNPA - December, 2012

Change the Weather History Date:

Monday, December 24, 2012

  Actual Average (KPNS) Record (KPNS)
Temperature  
Mean Temperature 66 °F 52 °F  
Max Temperature 69 °F 61 °F 78 °F (1974)
Min Temperature 63 °F 43 °F 11 °F (1989)
Degree Days  
Heating Degree Days 0 13  
Month to date heating degree days 273  
Since 1 July heating degree days 485  
Cooling Degree Days 1 0  
Month to date cooling degree days 7  
Year to date cooling degree days 2603  
Growing Degree Days 16 (Base 50)    
Moisture  
Dew Point 64 °F    
Average Humidity 94    
Maximum Humidity 100    
Minimum Humidity 80    
Precipitation  
Precipitation 0.02 in 0.15 in 2.37 in (1978)
Month to date precipitation 3.58  
Year to date precipitation 64.30  
Snow  
Snow 0.00 in 0.00 in 999.00 in (2004)
Month to date snowfall 0.0  
Since 1 July snowfall 0.0  
Snow Depth -    
Sea Level Pressure  
Sea Level Pressure 29.93 in    
Wind  
Wind Speed 10 mph (SW)    
Max Wind Speed 23 mph    
Max Gust Speed 29 mph    
Visibility 7 miles    
Events Fog , Rain    
T = Trace of Precipitation, MM = Missing Value Source: NWS Daily Summary

Daily Weather History Graph

Daily Weather History Graph

Search for Another Location

Airport or City:

Trip Planner

Search our weather history database for the weather conditions in past years. The results will help you decide how hot, cold, wet, or windy it might be!

Date:

Astronomy

Dec. 24, 2012 Rise Set
Actual Time 6:43 AM CST 4:54 PM CST
Civil Twilight 6:16 AM CST 5:21 PM CST
Nautical Twilight 5:46 AM CST 5:51 PM CST
Astronomical Twilight 5:17 AM CST 6:20 PM CST
Moon 2:17 PM CST (12/24) 3:27 AM CST (12/24)
Length of Visible Light 11h 04m
Length of Day
10h 11m
Waxing Gibbous, 88% of the Moon is Illuminated
Dec 24
Waxing Gibbous
Dec 28
Full
Jan 4
Last Quarter
Jan 11
New
Jan 18
First Quarter

Hourly Weather History & Observations

Time (CST) Temp. Dew Point Humidity Pressure Visibility Wind Dir Wind Speed Gust Speed Precip Events Conditions
12:56 AM 64.0 °F 57.9 °F 80% 30.02 in 10.0 mi South 10.4 mph - N/A   Partly Cloudy
1:56 AM 64.9 °F 59.0 °F 81% 30.01 in 10.0 mi South 10.4 mph - N/A   Overcast
2:56 AM 64.0 °F 60.1 °F 87% 29.99 in 10.0 mi SSW 9.2 mph - N/A   Mostly Cloudy
3:56 AM 64.9 °F 61.0 °F 87% 29.97 in 10.0 mi SSW 10.4 mph - N/A   Scattered Clouds
4:56 AM 64.9 °F 62.1 °F 90% 29.96 in 10.0 mi SSW 15.0 mph - N/A   Scattered Clouds
5:56 AM 64.0 °F 62.1 °F 93% 29.96 in 10.0 mi SSW 10.4 mph - 0.00 in Rain Light Rain
6:07 AM 64.4 °F 62.6 °F 94% 29.95 in 10.0 mi SSW 11.5 mph - 0.00 in   Overcast
6:39 AM 64.4 °F 62.6 °F 94% 29.96 in 9.0 mi SSW 12.7 mph - 0.00 in Rain Light Rain
6:56 AM 63.0 °F 62.1 °F 97% 29.97 in 5.0 mi SSW 15.0 mph 23.0 mph 0.00 in Rain Light Rain
7:56 AM 63.0 °F 63.0 °F 100% 29.97 in 5.0 mi SSW 11.5 mph - 0.00 in Rain Light Rain
8:56 AM 64.9 °F 64.0 °F 97% 29.98 in 10.0 mi SSW 12.7 mph - 0.00 in   Overcast
9:56 AM 68.0 °F 64.9 °F 90% 29.96 in 10.0 mi SSW 18.4 mph 26.5 mph 0.00 in   Overcast
10:24 AM 66.2 °F 64.4 °F 94% 29.95 in 6.0 mi SSW 18.4 mph 25.3 mph 0.01 in Rain Light Rain
10:56 AM 66.0 °F 64.0 °F 93% 29.94 in 10.0 mi SSW 19.6 mph 28.8 mph 0.01 in   Overcast
11:24 AM 66.2 °F 64.4 °F 94% 29.93 in 10.0 mi SW 23.0 mph 28.8 mph 0.00 in Rain Light Rain
11:56 AM 66.0 °F 64.9 °F 96% 29.93 in 10.0 mi WSW 5.8 mph 25.3 mph 0.01 in Rain Light Rain
12:31 PM 66.2 °F 64.4 °F 94% 29.91 in 10.0 mi SW 10.4 mph 20.7 mph 0.00 in   Overcast
12:56 PM 66.9 °F 64.9 °F 93% 29.91 in 10.0 mi SW 16.1 mph 23.0 mph 0.00 in   Overcast
1:56 PM 66.9 °F 64.9 °F 93% 29.90 in 10.0 mi SSW 9.2 mph - N/A   Overcast
2:56 PM 69.1 °F 64.9 °F 87% 29.89 in 10.0 mi SW 13.8 mph - N/A   Mostly Cloudy
3:56 PM 69.1 °F 64.9 °F 87% 29.90 in 10.0 mi West 5.8 mph - N/A   Mostly Cloudy
4:56 PM 64.9 °F 64.0 °F 97% 29.90 in 10.0 mi SW 5.8 mph - N/A   Mostly Cloudy
5:47 PM 66.2 °F 64.4 °F 94% 29.89 in 10.0 mi WSW 6.9 mph - N/A   Mostly Cloudy
5:56 PM 66.0 °F 64.9 °F 96% 29.90 in 9.0 mi WSW 6.9 mph - N/A   Mostly Cloudy
6:24 PM 66.2 °F 66.2 °F 100% 29.90 in 8.0 mi WSW 6.9 mph - N/A   Mostly Cloudy
6:56 PM 66.0 °F 64.9 °F 96% 29.91 in 7.0 mi WSW 5.8 mph - N/A   Mostly Cloudy
7:56 PM 66.0 °F 66.0 °F 100% 29.91 in 3.0 mi West 4.6 mph - N/A   Mostly Cloudy
8:56 PM 66.0 °F 66.0 °F 100% 29.93 in 2.5 mi WSW 3.5 mph - N/A   Overcast
9:41 PM 64.4 °F 64.4 °F 100% 29.92 in 1.2 mi Calm Calm - N/A   Overcast
9:53 PM 64.4 °F 64.4 °F 100% 29.92 in 0.8 mi South 3.5 mph - N/A   Mist
9:56 PM 64.9 °F 64.9 °F 100% 29.92 in 0.5 mi Calm Calm - N/A Fog Fog
10:47 PM 64.4 °F 64.4 °F 100% 29.91 in 1.0 mi Calm Calm - N/A   Mist
10:56 PM 64.0 °F 64.0 °F 100% 29.92 in 0.5 mi Calm Calm - N/A Fog Fog
11:06 PM 64.4 °F 64.4 °F 100% 29.91 in 0.2 mi Calm Calm - N/A Fog Fog
11:56 PM 64.0 °F 64.0 °F 100% 29.91 in 0.2 mi Calm Calm - N/A Fog Fog